Regional Weather Roundup
Issued by NWS

Home | Current Version | Previous Version | Graphics & Text | Print | Product List | Glossary On
Versions: 1 2 3 4 5 6 7 8 9 10 11 12 13 14 15 16 17 18 19 20 21 22 23 24 25 26 27 28 29 30 31 32 33 34 35 36 37 38 39 40 41 42 43 44 45 46 47 48 49 50
000
ASUS45 KPSR 250400
RWRAZ

PRELIMINARY ARIZONA REGIONAL HOURLY WEATHER ROUNDUP
NATIONAL WEATHER SERVICE PHOENIX AZ
900 PM MST SAT JAN 24 2015

NOTE: FAIR INDICATES FEW OR NO CLOUDS BELOW 12,000 FEET WITH NO
SIGNIFICANT WEATHER AND/OR OBSTRUCTIONS TO VISIBILITY.

AZZ001>003-036-250500-
NORTHWEST ARIZONA

CITY           SKY/WX    TMP DP  RH WIND       PRES   REMARKS
KINGMAN        CLEAR     45  20  36 NE10      30.23S
$$

AZZ004>008-015-016-018-250500-
NORTH CENTRAL ARIZONA

CITY           SKY/WX    TMP DP  RH WIND       PRES   REMARKS
GRAND CANYON   CLEAR     28  16  60 NE7       30.32S WCI  21
PRESCOTT       CLEAR     36  14  40 NW3       30.25R
FLAGSTAFF      NOT AVBL
PAYSON         CLEAR     46  12  25 NE12      30.24R
$$

AZZ009>014-017-250500-
NORTHEAST ARIZONA

CITY           SKY/WX    TMP DP  RH WIND       PRES   REMARKS
WINSLOW        NOT AVBL
SAINT JOHNS    CLEAR     31  19  61 SW3       30.29R
WINDOW ROCK    CLEAR     35  18  49 NE5       30.28F WCI  31
$$

AZZ023-250500-
GREATER PHOENIX AREA

CITY           SKY/WX    TMP DP  RH WIND       PRES   REMARKS
PHOENIX        CLEAR     62  22  21 E6        30.05R
DEER VALLEY    CLEAR     60  18  19 NE10      30.06R
SCOTTSDALE     CLEAR     60  18  19 CALM      30.08R
MESA-GATEWAY   PTCLDY    52  21  30 SE5       30.08R
CHANDLER       PTCLDY    54  21  28 E7        30.06R
$$

AZZ027-028-250500-
SOUTHWEST MARICOPA COUNTY AND PINAL COUNTY

CITY           SKY/WX    TMP DP  RH WIND       PRES   REMARKS
CASA GRANDE    PTCLDY    61   9  12 NE10      30.06R
GILA BEND      FAIR      59  11  15 SE5       30.03R
$$

AZZ503-504-507>509-250500-
SOUTHEAST ARIZONA

CITY           SKY/WX    TMP DP  RH WIND       PRES   REMARKS
TUCSON         MOCLDY    59   9  13 E14       30.08R
NOGALES        CLOUDY    52  12  20 NE5       30.11R
SIERRA VISTA   CLOUDY    45  14  28 S6        30.14F
SAFFORD        PTCLDY    49  14  24 SE9       30.17R
$$

AZZ020-021-025-026-031-250500-
SOUTHWEST ARIZONA

CITY           SKY/WX    TMP DP  RH WIND       PRES   REMARKS
YUMA           NOT AVBL
$$

CAZ031-033-041-043-047-048-061-250500-
SOUTHERN CALIFORNIA

CITY           SKY/WX    TMP DP  RH WIND       PRES   REMARKS
DOWNTOWN L.A.  CLEAR     64  35  34 CALM      30.01R
L.A. AIRPORT   CLEAR     67  33  28 SE3       30.01R
SAN DIEGO      PTCLDY    64  49  57 CALM      30.01R
BURBANK        CLEAR     64  24  21 CALM      30.03R
ONTARIO        CLEAR     73  16  11 NE18G31   30.06R
RIVERSIDE      CLEAR     68  19  15 NE7       30.09R
PALM SPRINGS   CLEAR     71  19  14 W9        30.11R
EL CENTRO NAS  CLEAR     52  16  24 W7        30.06R
IMPERIAL       CLEAR     54  27  35 W6        30.05R
BLYTHE         CLEAR     64  18  17 N13       30.08R
$$

NVZ020-UTZ003-250500-
SOUTHERN NEVADA-UTAH

CITY           SKY/WX    TMP DP  RH WIND       PRES   REMARKS
LAS VEGAS      NOT AVBL
SALT LAKE CITY CLOUDY    35  28  75 N6        30.48R WCI  30
$$

NMZ009-TXZ055-250500-
NEW MEXICO-WEST TEXAS

CITY           SKY/WX    TMP DP  RH WIND       PRES   REMARKS
ALBUQUERQUE    PTCLDY    40  20  44 N5        30.24R
EL PASO        CLOUDY    44  25  47 CALM      30.17F
$$


........................KEY........................
SKY/WX - SKY CONDITION/WEATHER
TMP    - TEMPERATURE IN FAHRENHEIT
DP     - DEW POINT IN FAHRENHEIT
RH     - RELATIVE HUMIDITY IN PERCENT
WIND   - DIRECTION AND SPEED IN MILES PER HOUR (MPH)
VRB    - VARIABLE WIND DIRECTION
PRES   - MEAN SEA LEVEL PRESSURE IN INCHES OF MERCURY
         F - FALLING PRESSURE   R - RISING PRESSURE
         S - STEADY PRESSURE
VSB    - VISIBILITY IN MILES
HX     - HEAT INDEX IN FAHRENHEIT
WCI    - WIND CHILL INDEX IN FAHRENHEIT
TC     - TEMPERATURE IN CELSIUS WHICH IS ALSO KNOWN AS
         TEMPERATURE IN CENTIGRADE
AFB    - AIR FORCE BASE
         LUKE AFB IS LUKE AIR FORCE BASE
         DAVIS-MONTHAN IS DAVIS-MONTHAN AIR FORCE BASE
NAS    - NAVAL AIR STATION
         EL CENTRO NAS IS EL CENTRO NAVAL AIR STATION
N/A    - NOT AVAILABLE


USA.gov is the U.S. government's official web portal to all federal, state and local government web resources and services.